Regional Weather Roundup
Issued by NWS

Home | Current Version | Previous Version | Text Only | Print | Product List | Glossary Off
Versions: 1 2 3 4 5 6 7 8 9 10 11 12 13 14 15 16 17 18 19 20 21 22 23 24 25 26 27 28 29 30 31 32 33 34 35 36 37 38 39 40 41 42 43 44 45 46 47 48 49 50

000
ASUS44 KMEG 011000
RWRTN
TENNESSEE HOURLY STATE WEATHER ROUNDUP
NATIONAL WEATHER SERVICE MEMPHIS TN
400 AM CST SUN FEB 01 2015

TNZ002-004-019-021-049-052-054-088>092-011100-
WEST TENNESSEE

CITY           SKY/WX    TMP DP  RH WIND       PRES   REMARKS
MEMPHIS INTL   LGT RAIN  52  30  43 S17G28    29.94F
NWS MEMPHIS      N/A     50 N/A N/A MISG        N/A
JACKSON        CLOUDY    50  22  33 S10       29.98F
DYERSBURG      CLOUDY   N/A N/A N/A SE10G16   29.95F
UNION CITY     MOCLDY    46  25  42 S14       29.93F
PARIS          PTCLDY    45  21  39 S14       29.97F
SAVANNAH       MOCLDY    46  21  36 S7        30.02F
$$

TNZ008-025-027-028-033-062-065-066-011100-
NORTH MIDDLE TENNESSEE

CITY           SKY/WX    TMP DP  RH WIND       PRES   REMARKS
NASHVILLE      CLOUDY    48  20  32 S10       30.06F
CLARKSVILLE    CLOUDY    44  21  40 SE9       30.02F
COOKEVILLE     CLEAR     46  19  34 S7        30.08F
CROSSVILLE     CLOUDY    43  17  35 S10G20    30.11F
$$

TNZ061-075-076-078-094-096-097-011100-
SOUTH MIDDLE TENNESSEE

CITY           SKY/WX    TMP DP  RH WIND       PRES   REMARKS
FAYETTEVILLE   CLEAR     45  19  36 MISG      30.07F
WINCHESTER     PTCLDY    46  21  36 SE13      30.10F
COLUMBIA       CLOUDY    48  23  37 S7        30.04S
SHELBYVILLE    MOCLDY    48  21  34 S9        30.09S
$$

TNZ017-018-042-046-047-011100-
NORTHEAST TENNESSEE

CITY           SKY/WX    TMP DP  RH WIND       PRES   REMARKS
TRI CITIES     CLOUDY    34  22  61 N3        30.18S
ELIZABETHTON   MOSUNNY   32  19  59 CALM      30.18S
$$

TNZ012-013-036-069-073-074-011100-
CENTRAL EAST TENNESSEE

CITY           SKY/WX    TMP DP  RH WIND       PRES   REMARKS
KNOXVILLE      CLOUDY    35  27  72 NE6       30.17F WCI  30
OAK RIDGE      CLOUDY    37  26  64 CALM      30.18F
GATLINBURG     SUNNY     34  25  69 E5        30.18F WCI  30
$$

TNZ083-085-099-011100-
SOUTHEAST TENNESSEE

CITY           SKY/WX    TMP DP  RH WIND       PRES   REMARKS
CHATTANOOGA    CLOUDY    39  29  67 CALM      30.18F
$$

SKY/WX REPORTED AS FAIR MEANS FEW OR NO CLOUDS BELOW
12 THOUSAND FEET.



USA.gov is the U.S. government's official web portal to all federal, state and local government web resources and services.